Wetterdaten: Freitag, 25.12.2015
Datum Zeit Auen-Temp. Temp gefhlt Luftfeuchte Luftdruck Regen Wind Richtung Richtung Taupunkt Windben
25.12.2015 00:00 4,0 C 4,7 C 68 % 1030,8 hPa 0,0 mm 4,4 km/h (1 Bft) N 360 -1,4 C 0,0 km/h (0 Bft)
25.12.2015 00:05 3,0 C 4,0 C 68 % 1030,8 hPa 0,0 mm 3,4 km/h (1 Bft) O-NO 67 -2,3 C 0,0 km/h (0 Bft)
25.12.2015 00:10 2,2 C 2,9 C 70 % 1030,8 hPa 0,0 mm 0,3 km/h (0 Bft) SO 135 -2,7 C 0,0 km/h (0 Bft)
25.12.2015 00:15 2,1 C 2,1 C 72 % 1030,8 hPa 0,0 mm 0,0 km/h (0 Bft) S-SO 157 -2,4 C 0,0 km/h (0 Bft)
25.12.2015 00:20 1,8 C 1,8 C 72 % 1030,8 hPa 0,0 mm 0,3 km/h (0 Bft) NO 45 -2,7 C 0,0 km/h (0 Bft)
25.12.2015 00:25 1,6 C 1,6 C 74 % 1030,8 hPa 0,0 mm 0,3 km/h (0 Bft) N-NO 22 -2,5 C 0,0 km/h (0 Bft)
25.12.2015 00:30 1,6 C 1,3 C 75 % 1030,8 hPa 0,0 mm 0,0 km/h (0 Bft) O-SO 112 -2,3 C 0,0 km/h (0 Bft)
25.12.2015 00:35 1,6 C 1,3 C 75 % 1031,0 hPa 0,0 mm 0,3 km/h (0 Bft) O 90 -2,3 C 0,0 km/h (0 Bft)
25.12.2015 00:40 1,7 C 1,5 C 73 % 1031,0 hPa 0,0 mm 0,8 km/h (0 Bft) S-SO 157 -2,6 C 4,1 km/h (1 Bft)
25.12.2015 00:45 1,4 C 1,3 C 76 % 1031,0 hPa 0,0 mm 0,8 km/h (0 Bft) N-NW 337 -2,4 C 0,0 km/h (0 Bft)
25.12.2015 00:50 1,4 C 1,2 C 74 % 1031,0 hPa 0,0 mm 0,5 km/h (0 Bft) SO 135 -2,7 C 4,9 km/h (1 Bft)
25.12.2015 00:55 2,5 C 2,5 C 75 % 1031,0 hPa 0,0 mm 1,6 km/h (1 Bft) S 180 -1,5 C 6,0 km/h (2 Bft)
25.12.2015 01:00 2,5 C 2,4 C 75 % 1031,0 hPa 0,0 mm 3,4 km/h (1 Bft) NW 315 -1,5 C 4,1 km/h (1 Bft)
25.12.2015 01:05 1,7 C 1,9 C 75 % 1031,0 hPa 0,0 mm 1,8 km/h (1 Bft) SW 225 -2,2 C 0,0 km/h (0 Bft)
25.12.2015 01:10 1,9 C 2,1 C 74 % 1031,0 hPa 0,0 mm 1,6 km/h (1 Bft) W 270 -2,2 C 7,5 km/h (2 Bft)
25.12.2015 01:15 1,5 C 1,9 C 75 % 1031,5 hPa 0,0 mm 1,3 km/h (1 Bft) NO 45 -2,4 C 0,0 km/h (0 Bft)
25.12.2015 01:20 1,2 C 1,2 C 76 % 1031,5 hPa 0,0 mm 0,0 km/h (0 Bft) NO 45 -2,5 C 0,0 km/h (0 Bft)
25.12.2015 01:25 1,5 C 1,2 C 77 % 1031,5 hPa 0,0 mm 0,0 km/h (0 Bft) O-NO 67 -2,1 C 0,0 km/h (0 Bft)
25.12.2015 01:28 0,9 C 0,7 C 77 % 1031,5 hPa 0,0 mm 0,8 km/h (0 Bft) SO 135 -2,7 C 2,6 km/h (1 Bft)
25.12.2015 01:30 0,9 C 0,7 C 77 % 1031,5 hPa 0,0 mm 0,8 km/h (0 Bft) SO 135 -2,7 C 2,6 km/h (1 Bft)
25.12.2015 01:35 0,8 C 0,6 C 77 % 1031,6 hPa 0,0 mm 0,8 km/h (0 Bft) O-NO 67 -2,8 C 0,0 km/h (0 Bft)
25.12.2015 01:40 0,8 C 0,5 C 78 % 1031,6 hPa 0,0 mm 0,0 km/h (0 Bft) O-SO 112 -2,6 C 0,0 km/h (0 Bft)
25.12.2015 01:45 0,5 C 0,2 C 78 % 1031,6 hPa 0,0 mm 0,0 km/h (0 Bft) O-SO 112 -2,9 C 0,0 km/h (0 Bft)
25.12.2015 01:50 0,3 C 0,0 C 78 % 1031,6 hPa 0,0 mm 0,0 km/h (0 Bft) NO 45 -3,1 C 0,0 km/h (0 Bft)
25.12.2015 01:55 0,5 C 0,1 C 79 % 1031,7 hPa 0,0 mm 0,0 km/h (0 Bft) O-NO 67 -2,7 C 0,0 km/h (0 Bft)
25.12.2015 02:00 0,5 C 0,1 C 79 % 1031,7 hPa 0,0 mm 0,0 km/h (0 Bft) O 90 -2,7 C 0,0 km/h (0 Bft)
25.12.2015 02:05 0,5 C 0,1 C 80 % 1031,7 hPa 0,0 mm 0,0 km/h (0 Bft) O-NO 67 -2,5 C 0,0 km/h (0 Bft)
25.12.2015 02:10 0,8 C 0,7 C 77 % 1031,7 hPa 0,0 mm 0,5 km/h (0 Bft) S 180 -2,8 C 3,4 km/h (1 Bft)
25.12.2015 02:15 0,9 C 0,8 C 77 % 1031,7 hPa 0,0 mm 1,8 km/h (1 Bft) S 180 -2,7 C 5,4 km/h (1 Bft)
25.12.2015 02:20 1,9 C 2,2 C 78 % 1031,7 hPa 0,0 mm 3,9 km/h (1 Bft) S 180 -1,5 C 13,2 km/h (3 Bft)
25.12.2015 02:25 3,0 C 3,1 C 77 % 1031,7 hPa 0,0 mm 4,7 km/h (1 Bft) SW 225 -0,6 C 8,3 km/h (2 Bft)
25.12.2015 02:30 3,0 C 3,3 C 76 % 1031,7 hPa 0,0 mm 7,0 km/h (2 Bft) S 180 -0,8 C 14,5 km/h (3 Bft)
25.12.2015 02:35 4,1 C 4,6 C 76 % 1031,7 hPa 0,0 mm 8,0 km/h (2 Bft) W-SW 247 0,3 C 11,1 km/h (2 Bft)
25.12.2015 02:40 2,9 C 4,9 C 76 % 1031,7 hPa 0,0 mm 7,3 km/h (2 Bft) SO 135 -0,9 C 0,0 km/h (0 Bft)
25.12.2015 02:45 1,8 C 4,9 C 76 % 1031,7 hPa 0,0 mm 3,9 km/h (1 Bft) NO 45 -2,0 C 3,9 km/h (1 Bft)
25.12.2015 02:50 1,6 C 3,2 C 76 % 1031,7 hPa 0,0 mm 0,3 km/h (0 Bft) O 90 -2,2 C 0,0 km/h (0 Bft)
25.12.2015 02:55 1,6 C 2,5 C 76 % 1031,6 hPa 0,0 mm 0,0 km/h (0 Bft) O-NO 67 -2,2 C 0,0 km/h (0 Bft)
25.12.2015 03:00 1,5 C 2,2 C 77 % 1031,6 hPa 0,0 mm 0,0 km/h (0 Bft) S 180 -2,1 C 0,0 km/h (0 Bft)
25.12.2015 03:05 1,9 C 2,5 C 76 % 1031,6 hPa 0,0 mm 0,3 km/h (0 Bft) S 180 -1,9 C 0,0 km/h (0 Bft)
25.12.2015 03:10 2,9 C 3,1 C 78 % 1031,6 hPa 0,0 mm 2,1 km/h (1 Bft) S 180 -0,5 C 5,4 km/h (1 Bft)
25.12.2015 03:15 3,6 C 3,8 C 76 % 1031,7 hPa 0,0 mm 2,8 km/h (1 Bft) SW 225 -0,2 C 4,1 km/h (1 Bft)
25.12.2015 03:20 3,6 C 4,0 C 76 % 1031,7 hPa 0,0 mm 3,6 km/h (1 Bft) S-SO 157 -0,2 C 4,4 km/h (1 Bft)
25.12.2015 03:25 4,4 C 4,4 C 75 % 1031,7 hPa 0,0 mm 3,9 km/h (1 Bft) SO 135 0,4 C 0,0 km/h (0 Bft)
25.12.2015 03:30 3,1 C 4,2 C 73 % 1031,7 hPa 0,0 mm 2,6 km/h (1 Bft) S 180 -1,3 C 3,6 km/h (1 Bft)
25.12.2015 03:35 2,3 C 3,6 C 73 % 1031,8 hPa 0,0 mm 1,0 km/h (0 Bft) N-NO 22 -2,0 C 0,0 km/h (0 Bft)
25.12.2015 03:40 1,7 C 2,4 C 74 % 1031,8 hPa 0,0 mm 0,3 km/h (0 Bft) NO 45 -2,4 C 0,0 km/h (0 Bft)
25.12.2015 03:45 1,6 C 1,7 C 74 % 1031,8 hPa 0,0 mm 0,0 km/h (0 Bft) NO 45 -2,5 C 0,0 km/h (0 Bft)
25.12.2015 03:50 1,4 C 1,3 C 75 % 1031,8 hPa 0,0 mm 0,0 km/h (0 Bft) NO 45 -2,5 C 0,0 km/h (0 Bft)
25.12.2015 03:55 1,4 C 1,3 C 75 % 1031,8 hPa 0,0 mm 0,0 km/h (0 Bft) S-SO 157 -2,5 C 0,0 km/h (0 Bft)
25.12.2015 04:00 1,0 C 0,9 C 76 % 1031,8 hPa 0,0 mm 0,3 km/h (0 Bft) S-SO 157 -2,7 C 0,0 km/h (0 Bft)
25.12.2015 04:05 0,8 C 1,0 C 76 % 1031,8 hPa 0,0 mm 0,3 km/h (0 Bft) S 180 -2,9 C 0,0 km/h (0 Bft)
25.12.2015 04:10 1,9 C 2,0 C 76 % 1031,8 hPa 0,0 mm 1,8 km/h (1 Bft) S-SO 157 -1,9 C 0,0 km/h (0 Bft)
25.12.2015 04:15 1,4 C 1,8 C 78 % 1031,9 hPa 0,0 mm 2,3 km/h (1 Bft) NO 45 -2,0 C 3,1 km/h (1 Bft)
25.12.2015 04:20 1,1 C 1,1 C 78 % 1031,9 hPa 0,0 mm 0,8 km/h (0 Bft) O-NO 67 -2,3 C 0,0 km/h (0 Bft)
25.12.2015 04:25 1,2 C 1,0 C 78 % 1031,9 hPa 0,0 mm 0,3 km/h (0 Bft) O-SO 112 -2,2 C 0,0 km/h (0 Bft)
25.12.2015 04:30 1,1 C 0,8 C 79 % 1031,9 hPa 0,0 mm 0,0 km/h (0 Bft) O 90 -2,1 C 0,0 km/h (0 Bft)
25.12.2015 04:35 1,7 C 1,4 C 77 % 1032,0 hPa 0,0 mm 1,3 km/h (1 Bft) S-SO 157 -1,9 C 5,4 km/h (1 Bft)
25.12.2015 04:40 2,5 C 2,3 C 77 % 1032,0 hPa 0,0 mm 2,6 km/h (1 Bft) W-SW 247 -1,1 C 5,2 km/h (1 Bft)
25.12.2015 04:45 2,8 C 2,7 C 77 % 1032,0 hPa 0,0 mm 3,1 km/h (1 Bft) S 180 -0,8 C 4,4 km/h (1 Bft)
25.12.2015 04:50 3,1 C 3,0 C 76 % 1032,0 hPa 0,0 mm 3,1 km/h (1 Bft) O-NO 67 -0,7 C 8,5 km/h (2 Bft)
25.12.2015 04:55 3,0 C 3,1 C 75 % 1031,8 hPa 0,0 mm 3,6 km/h (1 Bft) S-SO 157 -1,0 C 6,0 km/h (2 Bft)
25.12.2015 05:00 2,9 C 2,9 C 75 % 1031,8 hPa 0,0 mm 4,9 km/h (1 Bft) S-SO 157 -1,1 C 4,7 km/h (1 Bft)
25.12.2015 05:05 1,9 C 2,5 C 75 % 1031,8 hPa 0,0 mm 3,6 km/h (1 Bft) N-NO 22 -2,1 C 0,0 km/h (0 Bft)
25.12.2015 05:10 1,4 C 1,5 C 76 % 1031,8 hPa 0,0 mm 0,8 km/h (0 Bft) O-SO 112 -2,4 C 0,0 km/h (0 Bft)
25.12.2015 05:15 1,6 C 1,4 C 77 % 1032,0 hPa 0,0 mm 0,0 km/h (0 Bft) O-SO 112 -2,0 C 0,0 km/h (0 Bft)
25.12.2015 05:20 1,4 C 1,0 C 77 % 1032,0 hPa 0,0 mm 0,0 km/h (0 Bft) O-NO 67 -2,2 C 0,0 km/h (0 Bft)
25.12.2015 05:25 1,2 C 0,8 C 77 % 1032,0 hPa 0,0 mm 0,0 km/h (0 Bft) SO 135 -2,4 C 0,0 km/h (0 Bft)
25.12.2015 05:30 1,1 C 0,7 C 78 % 1032,0 hPa 0,0 mm 0,0 km/h (0 Bft) S-SO 157 -2,3 C 0,0 km/h (0 Bft)
25.12.2015 05:35 1,4 C 0,9 C 79 % 1032,0 hPa 0,0 mm 0,0 km/h (0 Bft) N-NO 22 -1,8 C 0,0 km/h (0 Bft)
25.12.2015 05:40 0,8 C 0,4 C 79 % 1032,0 hPa 0,0 mm 0,0 km/h (0 Bft) SO 135 -2,4 C 0,0 km/h (0 Bft)
25.12.2015 05:45 0,6 C 0,2 C 79 % 1032,0 hPa 0,0 mm 0,0 km/h (0 Bft) O 90 -2,6 C 0,0 km/h (0 Bft)
25.12.2015 05:50 0,6 C 0,2 C 79 % 1032,0 hPa 0,0 mm 0,0 km/h (0 Bft) SO 135 -2,6 C 0,0 km/h (0 Bft)
25.12.2015 05:55 0,9 C 0,4 C 77 % 1032,4 hPa 0,0 mm 0,0 km/h (0 Bft) O-SO 112 -2,7 C 0,0 km/h (0 Bft)
25.12.2015 06:00 0,7 C 0,2 C 82 % 1032,4 hPa 0,0 mm 0,0 km/h (0 Bft) S 180 -2,0 C 0,0 km/h (0 Bft)
25.12.2015 06:05 1,0 C 0,5 C 78 % 1032,4 hPa 0,0 mm 0,5 km/h (0 Bft) O 90 -2,4 C 2,8 km/h (1 Bft)
25.12.2015 06:10 0,9 C 0,5 C 78 % 1032,4 hPa 0,0 mm 1,3 km/h (1 Bft) S-SO 157 -2,5 C 2,8 km/h (1 Bft)
25.12.2015 06:15 1,2 C 1,2 C 78 % 1032,4 hPa 0,0 mm 2,1 km/h (1 Bft) S-SO 157 -2,2 C 5,7 km/h (1 Bft)
25.12.2015 06:20 2,0 C 2,1 C 79 % 1032,4 hPa 0,0 mm 3,9 km/h (1 Bft) S 180 -1,2 C 6,2 km/h (2 Bft)
25.12.2015 06:25 2,2 C 2,4 C 79 % 1032,4 hPa 0,0 mm 4,4 km/h (1 Bft) S 180 -1,1 C 4,9 km/h (1 Bft)
25.12.2015 06:30 2,5 C 2,7 C 78 % 1032,4 hPa 0,0 mm 3,9 km/h (1 Bft) S 180 -0,9 C 6,2 km/h (2 Bft)
25.12.2015 06:35 2,5 C 2,8 C 78 % 1032,7 hPa 0,0 mm 3,6 km/h (1 Bft) S-SO 157 -0,9 C 5,4 km/h (1 Bft)
25.12.2015 06:40 2,9 C 3,1 C 78 % 1032,7 hPa 0,0 mm 4,1 km/h (1 Bft) W 270 -0,5 C 6,2 km/h (2 Bft)
25.12.2015 06:45 2,9 C 2,9 C 78 % 1032,7 hPa 0,0 mm 3,6 km/h (1 Bft) O-NO 67 -0,5 C 3,4 km/h (1 Bft)
25.12.2015 06:50 1,5 C 2,2 C 77 % 1032,7 hPa 0,0 mm 1,3 km/h (1 Bft) O-NO 67 -2,1 C 0,0 km/h (0 Bft)
25.12.2015 06:55 1,4 C 1,5 C 78 % 1032,7 hPa 0,0 mm 0,5 km/h (0 Bft) O 90 -2,0 C 0,0 km/h (0 Bft)
25.12.2015 07:00 1,1 C 1,0 C 78 % 1032,7 hPa 0,0 mm 0,5 km/h (0 Bft) S-SO 157 -2,3 C 3,4 km/h (1 Bft)
25.12.2015 07:05 1,0 C 0,8 C 79 % 1032,7 hPa 0,0 mm 0,3 km/h (0 Bft) O-SO 112 -2,2 C 0,0 km/h (0 Bft)
25.12.2015 07:10 1,0 C 0,7 C 80 % 1032,7 hPa 0,0 mm 1,0 km/h (0 Bft) SO 135 -2,1 C 4,9 km/h (1 Bft)
25.12.2015 07:15 1,2 C 1,0 C 78 % 1033,0 hPa 0,0 mm 1,6 km/h (1 Bft) NO 45 -2,2 C 0,0 km/h (0 Bft)
25.12.2015 07:20 0,7 C 0,5 C 81 % 1033,0 hPa 0,0 mm 1,3 km/h (1 Bft) O 90 -2,2 C 0,0 km/h (0 Bft)
25.12.2015 07:25 0,8 C 0,5 C 82 % 1033,0 hPa 0,0 mm 0,3 km/h (0 Bft) O 90 -1,9 C 0,0 km/h (0 Bft)
25.12.2015 07:29 0,5 C 0,2 C 82 % 1033,0 hPa 0,0 mm 0,3 km/h (0 Bft) O-SO 112 -2,2 C 0,0 km/h (0 Bft)
25.12.2015 07:30 0,5 C 0,2 C 82 % 1033,0 hPa 0,0 mm 0,3 km/h (0 Bft) O-SO 112 -2,2 C 0,0 km/h (0 Bft)
25.12.2015 07:35 0,2 C 0,0 C 81 % 1033,0 hPa 0,0 mm 0,3 km/h (0 Bft) W-SW 247 -2,7 C 0,0 km/h (0 Bft)
25.12.2015 07:40 0,7 C 0,5 C 79 % 1033,0 hPa 0,0 mm 1,8 km/h (1 Bft) SO 135 -2,5 C 4,1 km/h (1 Bft)
25.12.2015 07:45 0,5 C 0,4 C 83 % 1033,0 hPa 0,0 mm 2,1 km/h (1 Bft) N-NO 22 -2,0 C 0,0 km/h (0 Bft)
25.12.2015 07:50 0,4 C 0,3 C 83 % 1033,0 hPa 0,0 mm 0,8 km/h (0 Bft) NW 315 -2,1 C 0,0 km/h (0 Bft)
25.12.2015 07:55 0,5 C 0,2 C 83 % 1033,2 hPa 0,0 mm 0,0 km/h (0 Bft) O 90 -2,0 C 0,0 km/h (0 Bft)
25.12.2015 08:00 0,4 C 0,1 C 83 % 1033,2 hPa 0,0 mm 0,3 km/h (0 Bft) W-NW 292 -2,1 C 0,0 km/h (0 Bft)
25.12.2015 08:05 0,6 C 0,2 C 83 % 1033,2 hPa 0,0 mm 0,5 km/h (0 Bft) NW 315 -1,9 C 2,8 km/h (1 Bft)
25.12.2015 08:10 0,3 C 0,0 C 83 % 1033,2 hPa 0,0 mm 0,3 km/h (0 Bft) N-NW 337 -2,2 C 0,0 km/h (0 Bft)
25.12.2015 08:15 -0,1 C -0,3 C 83 % 1033,3 hPa 0,0 mm 0,5 km/h (0 Bft) N 360 -2,6 C 0,0 km/h (0 Bft)
25.12.2015 08:20 0,0 C -0,4 C 83 % 1033,3 hPa 0,0 mm 0,3 km/h (0 Bft) NW 315 -2,5 C 0,0 km/h (0 Bft)
25.12.2015 08:25 0,1 C -0,3 C 83 % 1033,3 hPa 0,0 mm 0,0 km/h (0 Bft) O 90 -2,4 C 0,0 km/h (0 Bft)
25.12.2015 08:30 0,1 C -0,3 C 83 % 1033,3 hPa 0,0 mm 0,0 km/h (0 Bft) O-SO 112 -2,4 C 0,0 km/h (0 Bft)
25.12.2015 08:35 0,0 C -0,4 C 83 % 1033,2 hPa 0,0 mm 0,0 km/h (0 Bft) N-NW 337 -2,5 C 0,0 km/h (0 Bft)
25.12.2015 08:40 -0,2 C -0,5 C 83 % 1033,2 hPa 0,0 mm 0,0 km/h (0 Bft) W-NW 292 -2,7 C 0,0 km/h (0 Bft)
25.12.2015 08:45 -0,2 C -0,5 C 83 % 1033,2 hPa 0,0 mm 0,0 km/h (0 Bft) W-SW 247 -2,7 C 0,0 km/h (0 Bft)
25.12.2015 08:50 0,1 C -0,2 C 84 % 1033,2 hPa 0,0 mm 0,5 km/h (0 Bft) W-SW 247 -2,3 C 3,6 km/h (1 Bft)
25.12.2015 08:55 0,2 C -0,1 C 84 % 1033,4 hPa 0,0 mm 0,5 km/h (0 Bft) O-SO 112 -2,2 C 0,0 km/h (0 Bft)
25.12.2015 09:00 0,3 C 0,1 C 84 % 1033,4 hPa 0,0 mm 0,3 km/h (0 Bft) O-NO 67 -2,1 C 0,0 km/h (0 Bft)
25.12.2015 09:05 0,3 C 0,1 C 84 % 1033,4 hPa 0,0 mm 0,0 km/h (0 Bft) O-NO 67 -2,1 C 0,0 km/h (0 Bft)
25.12.2015 09:10 0,7 C 0,6 C 80 % 1033,4 hPa 0,0 mm 0,0 km/h (0 Bft) O-SO 112 -2,3 C 0,0 km/h (0 Bft)
25.12.2015 09:15 1,1 C 0,9 C 80 % 1033,7 hPa 0,0 mm 0,0 km/h (0 Bft) O-SO 112 -2,0 C 0,0 km/h (0 Bft)
25.12.2015 09:20 1,4 C 1,2 C 85 % 1033,7 hPa 0,0 mm 0,3 km/h (0 Bft) NW 315 -0,8 C 0,0 km/h (0 Bft)
25.12.2015 09:25 1,4 C 1,2 C 85 % 1033,7 hPa 0,0 mm 0,3 km/h (0 Bft) N-NO 22 -0,8 C 0,0 km/h (0 Bft)
25.12.2015 09:30 1,2 C 1,1 C 85 % 1033,7 hPa 0,0 mm 0,0 km/h (0 Bft) NO 45 -1,0 C 0,0 km/h (0 Bft)
25.12.2015 09:35 1,1 C 1,1 C 85 % 1033,5 hPa 0,0 mm 0,0 km/h (0 Bft) NO 45 -1,1 C 0,0 km/h (0 Bft)
25.12.2015 09:40 1,7 C 1,7 C 85 % 1033,5 hPa 0,0 mm 0,0 km/h (0 Bft) O 90 -0,5 C 0,0 km/h (0 Bft)
25.12.2015 09:45 1,9 C 2,2 C 80 % 1033,5 hPa 0,0 mm 0,0 km/h (0 Bft) O-NO 67 -1,2 C 0,0 km/h (0 Bft)
25.12.2015 09:50 2,5 C 2,9 C 80 % 1033,5 hPa 0,0 mm 0,0 km/h (0 Bft) O-SO 112 -0,6 C 0,0 km/h (0 Bft)
25.12.2015 09:55 3,1 C 3,3 C 80 % 1033,6 hPa 0,0 mm 0,0 km/h (0 Bft) O-NO 67 -0,0 C 0,0 km/h (0 Bft)
25.12.2015 10:00 3,9 C 3,8 C 85 % 1033,6 hPa 0,0 mm 0,0 km/h (0 Bft) SO 135 1,6 C 0,0 km/h (0 Bft)
25.12.2015 10:05 3,9 C 4,1 C 84 % 1033,6 hPa 0,0 mm 0,0 km/h (0 Bft) SO 135 1,4 C 0,0 km/h (0 Bft)
25.12.2015 10:10 4,0 C 4,3 C 82 % 1033,6 hPa 0,0 mm 0,0 km/h (0 Bft) O 90 1,2 C 0,0 km/h (0 Bft)
25.12.2015 10:15 4,1 C 4,3 C 78 % 1033,7 hPa 0,0 mm 0,0 km/h (0 Bft) O-SO 112 0,6 C 0,0 km/h (0 Bft)
25.12.2015 10:20 4,1 C 4,5 C 80 % 1033,7 hPa 0,0 mm 0,0 km/h (0 Bft) O-SO 112 1,0 C 0,0 km/h (0 Bft)
25.12.2015 10:25 4,4 C 4,6 C 77 % 1033,7 hPa 0,0 mm 0,0 km/h (0 Bft) O-SO 112 0,7 C 0,0 km/h (0 Bft)
25.12.2015 10:30 4,7 C 4,9 C 77 % 1033,7 hPa 0,0 mm 0,0 km/h (0 Bft) O-SO 112 1,0 C 0,0 km/h (0 Bft)
25.12.2015 10:35 5,1 C 5,0 C 78 % 1034,0 hPa 0,0 mm 0,0 km/h (0 Bft) O-SO 112 1,6 C 0,0 km/h (0 Bft)
25.12.2015 10:40 5,0 C 5,0 C 78 % 1034,0 hPa 0,0 mm 0,3 km/h (0 Bft) W-NW 292 1,5 C 3,4 km/h (1 Bft)
25.12.2015 10:45 5,0 C 5,2 C 78 % 1034,0 hPa 0,0 mm 0,3 km/h (0 Bft) W-NW 292 1,5 C 0,0 km/h (0 Bft)
25.12.2015 10:50 5,0 C 5,2 C 77 % 1034,0 hPa 0,0 mm 0,3 km/h (0 Bft) W-NW 292 1,3 C 0,0 km/h (0 Bft)
25.12.2015 10:55 5,2 C 5,2 C 77 % 1034,0 hPa 0,0 mm 0,0 km/h (0 Bft) W-NW 292 1,5 C 0,0 km/h (0 Bft)
25.12.2015 11:00 5,1 C 5,3 C 77 % 1034,0 hPa 0,0 mm 0,0 km/h (0 Bft) W-NW 292 1,4 C 0,0 km/h (0 Bft)
25.12.2015 11:05 4,8 C 5,5 C 77 % 1034,0 hPa 0,0 mm 0,0 km/h (0 Bft) W-NW 292 1,1 C 0,0 km/h (0 Bft)
25.12.2015 11:10 5,5 C 5,6 C 77 % 1034,0 hPa 0,0 mm 0,0 km/h (0 Bft) W-SW 247 1,8 C 0,0 km/h (0 Bft)
25.12.2015 11:15 5,5 C 5,8 C 76 % 1033,8 hPa 0,0 mm 0,0 km/h (0 Bft) SW 225 1,6 C 0,0 km/h (0 Bft)
25.12.2015 11:20 5,6 C 5,8 C 76 % 1033,8 hPa 0,0 mm 0,0 km/h (0 Bft) SW 225 1,7 C 0,0 km/h (0 Bft)
25.12.2015 11:25 6,0 C 6,0 C 75 % 1033,8 hPa 0,0 mm 0,0 km/h (0 Bft) SW 225 1,9 C 0,0 km/h (0 Bft)
25.12.2015 11:30 6,7 C 6,5 C 74 % 1033,8 hPa 0,0 mm 0,0 km/h (0 Bft) SW 225 2,4 C 0,0 km/h (0 Bft)
25.12.2015 11:35 6,7 C 6,6 C 73 % 1033,7 hPa 0,0 mm 0,0 km/h (0 Bft) S-SW 202 2,2 C 0,0 km/h (0 Bft)
25.12.2015 11:40 7,1 C 6,9 C 71 % 1033,7 hPa 0,0 mm 0,0 km/h (0 Bft) S-SO 157 2,2 C 0,0 km/h (0 Bft)
25.12.2015 11:45 7,4 C 7,2 C 70 % 1033,7 hPa 0,0 mm 0,0 km/h (0 Bft) S-SO 157 2,3 C 0,0 km/h (0 Bft)
25.12.2015 11:50 6,7 C 7,1 C 70 % 1033,7 hPa 0,0 mm 0,0 km/h (0 Bft) S-SO 157 1,6 C 0,0 km/h (0 Bft)
25.12.2015 11:55 7,1 C 7,2 C 70 % 1033,6 hPa 0,0 mm 0,0 km/h (0 Bft) S-SO 157 2,0 C 0,0 km/h (0 Bft)
25.12.2015 12:00 7,3 C 7,5 C 70 % 1033,6 hPa 0,0 mm 0,0 km/h (0 Bft) S-SO 157 2,2 C 0,0 km/h (0 Bft)
25.12.2015 12:05 7,5 C 7,6 C 70 % 1033,6 hPa 0,0 mm 0,0 km/h (0 Bft) S-SO 157 2,4 C 0,0 km/h (0 Bft)
25.12.2015 12:10 7,6 C 7,8 C 70 % 1033,6 hPa 0,0 mm 0,0 km/h (0 Bft) S-SO 157 2,5 C 0,0 km/h (0 Bft)
25.12.2015 12:15 7,8 C 7,8 C 70 % 1033,3 hPa 0,0 mm 0,0 km/h (0 Bft) S-SO 157 2,7 C 0,0 km/h (0 Bft)
25.12.2015 12:20 7,7 C 7,8 C 70 % 1033,3 hPa 0,0 mm 0,0 km/h (0 Bft) S 180 2,6 C 0,0 km/h (0 Bft)
25.12.2015 12:25 8,2 C 8,1 C 68 % 1033,3 hPa 0,0 mm 0,0 km/h (0 Bft) S 180 2,7 C 0,0 km/h (0 Bft)
25.12.2015 12:30 8,5 C 8,3 C 67 % 1033,3 hPa 0,0 mm 0,0 km/h (0 Bft) S 180 2,7 C 0,0 km/h (0 Bft)
25.12.2015 12:35 8,1 C 8,1 C 67 % 1033,2 hPa 0,0 mm 0,0 km/h (0 Bft) S 180 2,3 C 0,0 km/h (0 Bft)
25.12.2015 12:40 8,2 C 8,2 C 67 % 1033,2 hPa 0,0 mm 0,0 km/h (0 Bft) S 180 2,4 C 0,0 km/h (0 Bft)
25.12.2015 12:45 8,4 C 8,3 C 67 % 1033,2 hPa 0,0 mm 0,0 km/h (0 Bft) S 180 2,6 C 0,0 km/h (0 Bft)
25.12.2015 12:50 8,5 C 8,5 C 67 % 1033,2 hPa 0,0 mm 0,0 km/h (0 Bft) S 180 2,7 C 0,0 km/h (0 Bft)
25.12.2015 12:55 8,5 C 8,5 C 66 % 1033,1 hPa 0,0 mm 0,0 km/h (0 Bft) S 180 2,5 C 0,0 km/h (0 Bft)
25.12.2015 13:00 8,7 C 8,6 C 66 % 1033,1 hPa 0,0 mm 0,0 km/h (0 Bft) S 180 2,7 C 0,0 km/h (0 Bft)
25.12.2015 13:05 8,7 C 8,6 C 66 % 1033,1 hPa 0,0 mm 0,0 km/h (0 Bft) S 180 2,7 C 0,0 km/h (0 Bft)
25.12.2015 13:10 9,0 C 8,9 C 65 % 1033,1 hPa 0,0 mm 0,0 km/h (0 Bft) S 180 2,8 C 0,0 km/h (0 Bft)
25.12.2015 13:15 9,3 C 9,1 C 63 % 1033,0 hPa 0,0 mm 0,0 km/h (0 Bft) S 180 2,6 C 0,0 km/h (0 Bft)
25.12.2015 13:20 9,2 C 9,1 C 62 % 1033,0 hPa 0,0 mm 0,0 km/h (0 Bft) S 180 2,3 C 0,0 km/h (0 Bft)
25.12.2015 13:25 9,0 C 9,1 C 62 % 1033,0 hPa 0,0 mm 0,0 km/h (0 Bft) W-SW 247 2,1 C 0,0 km/h (0 Bft)
25.12.2015 13:30 8,9 C 9,4 C 63 % 1033,0 hPa 0,0 mm 0,0 km/h (0 Bft) W-SW 247 2,2 C 0,0 km/h (0 Bft)
25.12.2015 13:35 9,1 C 9,6 C 62 % 1032,7 hPa 0,0 mm 0,0 km/h (0 Bft) W-SW 247 2,2 C 0,0 km/h (0 Bft)
25.12.2015 13:40 9,8 C 9,9 C 62 % 1032,7 hPa 0,0 mm 0,0 km/h (0 Bft) O-NO 67 2,9 C 0,0 km/h (0 Bft)
25.12.2015 13:45 10,0 C 10,1 C 61 % 1032,7 hPa 0,0 mm 0,0 km/h (0 Bft) O 90 2,8 C 0,0 km/h (0 Bft)
25.12.2015 13:50 9,9 C 11,1 C 60 % 1032,7 hPa 0,0 mm 0,0 km/h (0 Bft) O-NO 67 2,5 C 0,0 km/h (0 Bft)
25.12.2015 13:55 10,2 C 12,5 C 60 % 1032,8 hPa 0,0 mm 0,0 km/h (0 Bft) O-NO 67 2,8 C 0,0 km/h (0 Bft)
25.12.2015 14:00 10,6 C 14,2 C 59 % 1032,8 hPa 0,0 mm 0,0 km/h (0 Bft) O-NO 67 2,9 C 0,0 km/h (0 Bft)
25.12.2015 14:05 10,7 C 15,0 C 59 % 1032,8 hPa 0,0 mm 0,0 km/h (0 Bft) O 90 3,0 C 0,0 km/h (0 Bft)
25.12.2015 14:10 10,4 C 15,0 C 59 % 1032,8 hPa 0,0 mm 0,0 km/h (0 Bft) O 90 2,7 C 0,0 km/h (0 Bft)
25.12.2015 14:15 10,0 C 14,8 C 59 % 1032,8 hPa 0,0 mm 0,0 km/h (0 Bft) O 90 2,4 C 0,0 km/h (0 Bft)
25.12.2015 14:20 9,5 C 14,1 C 59 % 1032,8 hPa 0,0 mm 0,0 km/h (0 Bft) O-NO 67 1,9 C 0,0 km/h (0 Bft)
25.12.2015 14:25 9,3 C 13,2 C 59 % 1032,8 hPa 0,0 mm 0,0 km/h (0 Bft) O-NO 67 1,7 C 0,0 km/h (0 Bft)
25.12.2015 14:30 9,4 C 12,5 C 59 % 1032,8 hPa 0,0 mm 0,0 km/h (0 Bft) O-NO 67 1,8 C 0,0 km/h (0 Bft)
25.12.2015 14:35 9,2 C 12,2 C 60 % 1032,7 hPa 0,0 mm 0,0 km/h (0 Bft) O-NO 67 1,8 C 0,0 km/h (0 Bft)
25.12.2015 14:40 9,2 C 11,4 C 61 % 1032,7 hPa 0,0 mm 0,0 km/h (0 Bft) O-NO 67 2,1 C 0,0 km/h (0 Bft)
25.12.2015 14:45 9,1 C 10,9 C 61 % 1032,7 hPa 0,0 mm 0,0 km/h (0 Bft) O-NO 67 2,0 C 0,0 km/h (0 Bft)
25.12.2015 14:50 9,2 C 11,1 C 61 % 1032,7 hPa 0,0 mm 0,0 km/h (0 Bft) O-NO 67 2,1 C 0,0 km/h (0 Bft)
25.12.2015 14:55 9,0 C 11,1 C 61 % 1032,6 hPa 0,0 mm 0,0 km/h (0 Bft) O-NO 67 1,9 C 0,0 km/h (0 Bft)
25.12.2015 15:00 9,4 C 11,8 C 61 % 1032,6 hPa 0,0 mm 0,0 km/h (0 Bft) O-NO 67 2,3 C 0,0 km/h (0 Bft)
25.12.2015 15:05 9,6 C 12,0 C 60 % 1032,6 hPa 0,0 mm 0,0 km/h (0 Bft) O-NO 67 2,2 C 0,0 km/h (0 Bft)
25.12.2015 15:10 9,5 C 11,4 C 62 % 1032,6 hPa 0,0 mm 0,0 km/h (0 Bft) SO 135 2,6 C 0,0 km/h (0 Bft)
25.12.2015 15:15 9,5 C 10,9 C 63 % 1032,8 hPa 0,0 mm 0,0 km/h (0 Bft) SO 135 2,8 C 0,0 km/h (0 Bft)
25.12.2015 15:20 9,4 C 10,1 C 62 % 1032,8 hPa 0,0 mm 0,0 km/h (0 Bft) SO 135 2,5 C 0,0 km/h (0 Bft)
25.12.2015 15:25 9,4 C 9,7 C 62 % 1032,8 hPa 0,0 mm 0,0 km/h (0 Bft) SO 135 2,5 C 0,0 km/h (0 Bft)
25.12.2015 15:30 9,0 C 9,2 C 63 % 1032,8 hPa 0,0 mm 0,0 km/h (0 Bft) SO 135 2,3 C 0,0 km/h (0 Bft)
25.12.2015 15:35 9,1 C 9,1 C 63 % 1033,0 hPa 0,0 mm 0,0 km/h (0 Bft) S-SO 157 2,4 C 0,0 km/h (0 Bft)
25.12.2015 15:40 9,1 C 9,1 C 63 % 1033,0 hPa 0,0 mm 1,8 km/h (1 Bft) W-SW 247 2,4 C 3,9 km/h (1 Bft)
25.12.2015 15:45 9,1 C 9,1 C 63 % 1033,0 hPa 0,0 mm 1,8 km/h (1 Bft) S 180 2,4 C 0,0 km/h (0 Bft)
25.12.2015 15:50 8,8 C 8,8 C 63 % 1033,0 hPa 0,0 mm 0,5 km/h (0 Bft) S 180 2,2 C 0,0 km/h (0 Bft)
25.12.2015 15:55 8,6 C 8,6 C 63 % 1033,1 hPa 0,0 mm 0,3 km/h (0 Bft) S 180 2,0 C 0,0 km/h (0 Bft)
25.12.2015 16:00 8,3 C 8,4 C 64 % 1033,1 hPa 0,0 mm 0,0 km/h (0 Bft) S 180 1,9 C 0,0 km/h (0 Bft)
25.12.2015 16:05 8,0 C 8,1 C 64 % 1033,1 hPa 0,0 mm 0,0 km/h (0 Bft) S-SW 202 1,6 C 5,2 km/h (1 Bft)
25.12.2015 16:10 7,2 C 7,7 C 66 % 1033,1 hPa 0,0 mm 0,3 km/h (0 Bft) S 180 1,3 C 0,0 km/h (0 Bft)
25.12.2015 16:15 6,9 C 7,5 C 67 % 1033,1 hPa 0,0 mm 0,3 km/h (0 Bft) S 180 1,2 C 0,0 km/h (0 Bft)
25.12.2015 16:20 6,8 C 7,1 C 68 % 1033,1 hPa 0,0 mm 0,0 km/h (0 Bft) S 180 1,3 C 0,0 km/h (0 Bft)
25.12.2015 16:25 7,0 C 7,0 C 68 % 1033,1 hPa 0,0 mm 0,0 km/h (0 Bft) S 180 1,5 C 0,0 km/h (0 Bft)
25.12.2015 16:30 7,1 C 6,8 C 68 % 1033,1 hPa 0,0 mm 0,0 km/h (0 Bft) S-SO 157 1,6 C 0,0 km/h (0 Bft)
25.12.2015 16:35 7,0 C 6,7 C 68 % 1033,2 hPa 0,0 mm 0,0 km/h (0 Bft) S-SO 157 1,5 C 0,0 km/h (0 Bft)
25.12.2015 16:40 6,8 C 6,5 C 68 % 1033,2 hPa 0,0 mm 0,0 km/h (0 Bft) S-SO 157 1,3 C 0,0 km/h (0 Bft)
25.12.2015 16:45 6,7 C 6,3 C 68 % 1033,2 hPa 0,0 mm 0,0 km/h (0 Bft) S-SO 157 1,2 C 0,0 km/h (0 Bft)
25.12.2015 16:50 6,5 C 6,1 C 68 % 1033,2 hPa 0,0 mm 0,0 km/h (0 Bft) S-SO 157 1,0 C 0,0 km/h (0 Bft)
25.12.2015 16:55 6,2 C 5,8 C 67 % 1033,3 hPa 0,0 mm 0,0 km/h (0 Bft) S-SO 157 0,5 C 0,0 km/h (0 Bft)
25.12.2015 17:00 5,9 C 5,5 C 68 % 1033,3 hPa 0,0 mm 0,0 km/h (0 Bft) S 180 0,5 C 0,0 km/h (0 Bft)
25.12.2015 17:05 5,9 C 5,5 C 68 % 1033,3 hPa 0,0 mm 0,0 km/h (0 Bft) S 180 0,5 C 0,0 km/h (0 Bft)
25.12.2015 17:10 6,0 C 5,5 C 67 % 1033,3 hPa 0,0 mm 0,0 km/h (0 Bft) S-SO 157 0,3 C 0,0 km/h (0 Bft)
25.12.2015 17:15 6,0 C 5,4 C 67 % 1033,2 hPa 0,0 mm 0,0 km/h (0 Bft) S 180 0,3 C 0,0 km/h (0 Bft)
25.12.2015 17:20 5,9 C 5,3 C 67 % 1033,2 hPa 0,0 mm 0,0 km/h (0 Bft) S-SO 157 0,3 C 0,0 km/h (0 Bft)
25.12.2015 17:25 5,9 C 5,3 C 67 % 1033,2 hPa 0,0 mm 0,0 km/h (0 Bft) S-SO 157 0,3 C 0,0 km/h (0 Bft)
25.12.2015 17:30 5,8 C 5,2 C 68 % 1033,2 hPa 0,0 mm 0,0 km/h (0 Bft) SO 135 0,4 C 0,0 km/h (0 Bft)
25.12.2015 17:35 5,6 C 5,1 C 68 % 1033,3 hPa 0,0 mm 0,0 km/h (0 Bft) SO 135 0,2 C 0,0 km/h (0 Bft)
25.12.2015 17:40 4,8 C 4,5 C 69 % 1033,3 hPa 0,0 mm 0,0 km/h (0 Bft) O-SO 112 -0,4 C 0,0 km/h (0 Bft)
25.12.2015 17:45 4,6 C 4,2 C 70 % 1033,3 hPa 0,0 mm 0,0 km/h (0 Bft) SO 135 -0,4 C 0,0 km/h (0 Bft)
25.12.2015 17:50 4,3 C 4,0 C 70 % 1033,3 hPa 0,0 mm 0,0 km/h (0 Bft) S-SO 157 -0,7 C 0,0 km/h (0 Bft)
25.12.2015 17:55 4,1 C 3,6 C 72 % 1033,7 hPa 0,0 mm 0,0 km/h (0 Bft) O-SO 112 -0,5 C 0,0 km/h (0 Bft)
25.12.2015 18:00 4,1 C 3,5 C 74 % 1033,7 hPa 0,0 mm 0,0 km/h (0 Bft) O-SO 112 -0,1 C 0,0 km/h (0 Bft)
25.12.2015 18:05 4,0 C 3,5 C 72 % 1033,7 hPa 0,0 mm 0,0 km/h (0 Bft) SO 135 -0,6 C 0,0 km/h (0 Bft)
25.12.2015 18:10 3,9 C 3,5 C 73 % 1033,7 hPa 0,0 mm 0,0 km/h (0 Bft) S-SO 157 -0,5 C 0,0 km/h (0 Bft)
25.12.2015 18:15 3,7 C 3,3 C 73 % 1033,8 hPa 0,0 mm 0,5 km/h (0 Bft) SO 135 -0,7 C 0,0 km/h (0 Bft)
25.12.2015 18:20 3,4 C 3,2 C 74 % 1033,8 hPa 0,0 mm 1,3 km/h (1 Bft) SO 135 -0,8 C 5,4 km/h (1 Bft)
25.12.2015 18:25 3,3 C 3,0 C 77 % 1033,8 hPa 0,0 mm 1,3 km/h (1 Bft) O 90 -0,3 C 0,0 km/h (0 Bft)
25.12.2015 18:30 3,0 C 2,7 C 74 % 1033,8 hPa 0,0 mm 0,8 km/h (0 Bft) SO 135 -1,2 C 0,0 km/h (0 Bft)
25.12.2015 18:35 3,1 C 2,7 C 75 % 1033,8 hPa 0,0 mm 0,0 km/h (0 Bft) S 180 -0,9 C 0,0 km/h (0 Bft)
25.12.2015 18:40 3,1 C 2,6 C 77 % 1033,8 hPa 0,0 mm 0,0 km/h (0 Bft) S-SO 157 -0,5 C 0,0 km/h (0 Bft)
25.12.2015 18:45 3,1 C 2,7 C 75 % 1033,8 hPa 0,0 mm 0,0 km/h (0 Bft) SO 135 -0,9 C 0,0 km/h (0 Bft)
25.12.2015 18:50 2,5 C 2,1 C 77 % 1033,8 hPa 0,0 mm 0,5 km/h (0 Bft) W-NW 292 -1,1 C 4,4 km/h (1 Bft)
25.12.2015 18:55 2,6 C 2,2 C 78 % 1034,2 hPa 0,0 mm 1,0 km/h (0 Bft) S 180 -0,8 C 0,0 km/h (0 Bft)
25.12.2015 19:00 2,3 C 1,9 C 78 % 1034,2 hPa 0,0 mm 0,8 km/h (0 Bft) SO 135 -1,1 C 0,0 km/h (0 Bft)
25.12.2015 19:05 2,6 C 2,1 C 79 % 1034,2 hPa 0,0 mm 0,3 km/h (0 Bft) S 180 -0,7 C 0,0 km/h (0 Bft)
25.12.2015 19:10 2,0 C 1,7 C 78 % 1034,2 hPa 0,0 mm 0,0 km/h (0 Bft) O-SO 112 -1,4 C 0,0 km/h (0 Bft)
25.12.2015 19:15 1,9 C 1,5 C 79 % 1034,2 hPa 0,0 mm 0,0 km/h (0 Bft) S-SO 157 -1,3 C 0,0 km/h (0 Bft)
25.12.2015 19:20 1,9 C 1,6 C 79 % 1034,2 hPa 0,0 mm 0,0 km/h (0 Bft) N-NW 337 -1,3 C 0,0 km/h (0 Bft)
25.12.2015 19:25 1,7 C 1,4 C 79 % 1034,2 hPa 0,0 mm 0,0 km/h (0 Bft) N-NW 337 -1,5 C 0,0 km/h (0 Bft)
25.12.2015 19:31 1,1 C 0,8 C 78 % 1034,2 hPa 0,0 mm 0,0 km/h (0 Bft) N-NW 337 -2,3 C 0,0 km/h (0 Bft)
25.12.2015 19:35 0,9 C 0,6 C 79 % 1034,3 hPa 0,0 mm 0,5 km/h (0 Bft) S 180 -2,3 C 0,0 km/h (0 Bft)
25.12.2015 19:40 0,8 C 0,5 C 79 % 1034,3 hPa 0,0 mm 0,5 km/h (0 Bft) S-SO 157 -2,4 C 0,0 km/h (0 Bft)
25.12.2015 19:45 1,0 C 0,5 C 80 % 1034,3 hPa 0,0 mm 0,0 km/h (0 Bft) O-SO 112 -2,1 C 0,0 km/h (0 Bft)
25.12.2015 19:50 1,2 C 0,8 C 78 % 1034,3 hPa 0,0 mm 1,6 km/h (1 Bft) W 270 -2,2 C 4,9 km/h (1 Bft)
25.12.2015 19:55 1,1 C 0,7 C 82 % 1034,2 hPa 0,0 mm 2,1 km/h (1 Bft) SO 135 -1,6 C 0,0 km/h (0 Bft)
25.12.2015 20:00 1,4 C 1,0 C 82 % 1034,2 hPa 0,0 mm 1,6 km/h (1 Bft) NW 315 -1,3 C 6,0 km/h (2 Bft)
25.12.2015 20:05 1,8 C 1,5 C 79 % 1034,2 hPa 0,0 mm 2,3 km/h (1 Bft) SO 135 -1,4 C 7,3 km/h (2 Bft)
25.12.2015 20:10 2,2 C 1,8 C 82 % 1034,2 hPa 0,0 mm 2,8 km/h (1 Bft) O-SO 112 -0,5 C 16,3 km/h (3 Bft)
25.12.2015 20:15 1,9 C 1,6 C 81 % 1034,2 hPa 0,0 mm 1,3 km/h (1 Bft) O-NO 67 -1,0 C 3,4 km/h (1 Bft)
25.12.2015 20:20 2,1 C 1,7 C 80 % 1034,2 hPa 0,0 mm 1,3 km/h (1 Bft) W 270 -1,0 C 8,5 km/h (2 Bft)
25.12.2015 20:25 1,7 C 1,5 C 80 % 1034,2 hPa 0,0 mm 1,3 km/h (1 Bft) NO 45 -1,4 C 0,0 km/h (0 Bft)
25.12.2015 20:30 1,8 C 1,5 C 80 % 1034,2 hPa 0,0 mm 0,8 km/h (0 Bft) NW 315 -1,3 C 3,6 km/h (1 Bft)
25.12.2015 20:35 2,0 C 1,6 C 79 % 1034,2 hPa 0,0 mm 0,5 km/h (0 Bft) O-NO 67 -1,2 C 0,0 km/h (0 Bft)
25.12.2015 20:40 1,5 C 1,2 C 79 % 1034,2 hPa 0,0 mm 0,5 km/h (0 Bft) O-NO 67 -1,7 C 0,0 km/h (0 Bft)
25.12.2015 20:45 1,3 C 1,0 C 79 % 1034,2 hPa 0,0 mm 0,0 km/h (0 Bft) O-NO 67 -1,9 C 0,0 km/h (0 Bft)
25.12.2015 20:50 1,4 C 1,0 C 80 % 1034,2 hPa 0,0 mm 0,0 km/h (0 Bft) O-NO 67 -1,7 C 0,0 km/h (0 Bft)
25.12.2015 20:55 1,5 C 1,0 C 80 % 1034,2 hPa 0,0 mm 0,0 km/h (0 Bft) O 90 -1,6 C 0,0 km/h (0 Bft)
25.12.2015 21:00 1,0 C 0,6 C 79 % 1034,2 hPa 0,0 mm 0,0 km/h (0 Bft) O 90 -2,2 C 0,0 km/h (0 Bft)
25.12.2015 21:05 1,0 C 0,6 C 80 % 1034,2 hPa 0,0 mm 0,0 km/h (0 Bft) O-SO 112 -2,1 C 0,0 km/h (0 Bft)
25.12.2015 21:10 0,8 C 0,4 C 80 % 1034,2 hPa 0,0 mm 0,0 km/h (0 Bft) O-SO 112 -2,2 C 0,0 km/h (0 Bft)
25.12.2015 21:15 0,6 C 0,2 C 80 % 1034,3 hPa 0,0 mm 0,0 km/h (0 Bft) O-NO 67 -2,4 C 0,0 km/h (0 Bft)
25.12.2015 21:20 0,7 C 0,2 C 81 % 1034,3 hPa 0,0 mm 0,0 km/h (0 Bft) NW 315 -2,2 C 2,6 km/h (1 Bft)
25.12.2015 21:25 0,5 C 0,1 C 81 % 1034,3 hPa 0,0 mm 0,0 km/h (0 Bft) N-NW 337 -2,4 C 0,0 km/h (0 Bft)
25.12.2015 21:30 0,2 C -0,2 C 80 % 1034,3 hPa 0,0 mm 0,0 km/h (0 Bft) N-NW 337 -2,8 C 0,0 km/h (0 Bft)
25.12.2015 21:35 0,6 C 0,1 C 82 % 1034,2 hPa 0,0 mm 0,0 km/h (0 Bft) NW 315 -2,1 C 0,0 km/h (0 Bft)
25.12.2015 21:40 0,6 C 0,2 C 82 % 1034,2 hPa 0,0 mm 0,0 km/h (0 Bft) S-SO 157 -2,1 C 0,0 km/h (0 Bft)
25.12.2015 21:45 0,6 C 0,3 C 83 % 1034,2 hPa 0,0 mm 0,3 km/h (0 Bft) O-NO 67 -1,9 C 0,0 km/h (0 Bft)
25.12.2015 21:50 0,8 C 0,5 C 83 % 1034,2 hPa 0,0 mm 0,3 km/h (0 Bft) O-NO 67 -1,8 C 0,0 km/h (0 Bft)
25.12.2015 21:55 0,8 C 0,4 C 83 % 1034,2 hPa 0,0 mm 0,0 km/h (0 Bft) O-NO 67 -1,8 C 0,0 km/h (0 Bft)
25.12.2015 22:00 0,7 C 0,4 C 83 % 1034,2 hPa 0,0 mm 0,5 km/h (0 Bft) N-NO 22 -1,8 C 0,0 km/h (0 Bft)
25.12.2015 22:05 0,8 C 0,4 C 83 % 1034,2 hPa 0,0 mm 0,5 km/h (0 Bft) O-NO 67 -1,8 C 0,0 km/h (0 Bft)
25.12.2015 22:10 0,5 C 0,2 C 82 % 1034,2 hPa 0,0 mm 0,0 km/h (0 Bft) N-NO 22 -2,2 C 0,0 km/h (0 Bft)
25.12.2015 22:15 0,4 C 0,1 C 82 % 1034,2 hPa 0,0 mm 0,0 km/h (0 Bft) N-NO 22 -2,3 C 0,0 km/h (0 Bft)
25.12.2015 22:20 0,3 C 0,0 C 82 % 1034,2 hPa 0,0 mm 0,0 km/h (0 Bft) N-NO 22 -2,4 C 0,0 km/h (0 Bft)
25.12.2015 22:25 0,1 C -0,2 C 82 % 1034,2 hPa 0,0 mm 0,0 km/h (0 Bft) NO 45 -2,6 C 0,0 km/h (0 Bft)
25.12.2015 22:30 0,3 C -0,2 C 82 % 1034,2 hPa 0,0 mm 0,3 km/h (0 Bft) N-NO 22 -2,4 C 0,0 km/h (0 Bft)
25.12.2015 22:35 0,1 C -0,3 C 82 % 1034,1 hPa 0,0 mm 0,3 km/h (0 Bft) O-NO 67 -2,6 C 0,0 km/h (0 Bft)
25.12.2015 22:40 0,4 C -0,1 C 83 % 1034,1 hPa 0,0 mm 0,0 km/h (0 Bft) NO 45 -2,1 C 0,0 km/h (0 Bft)
25.12.2015 22:45 0,1 C -0,3 C 82 % 1034,1 hPa 0,0 mm 0,0 km/h (0 Bft) O-SO 112 -2,6 C 0,0 km/h (0 Bft)
25.12.2015 22:50 -0,1 C -0,5 C 82 % 1034,1 hPa 0,0 mm 0,0 km/h (0 Bft) NO 45 -2,8 C 0,0 km/h (0 Bft)
25.12.2015 22:55 -0,1 C -0,5 C 82 % 1034,2 hPa 0,0 mm 0,0 km/h (0 Bft) NO 45 -2,8 C 0,0 km/h (0 Bft)
25.12.2015 23:00 -0,2 C -0,6 C 82 % 1034,2 hPa 0,0 mm 0,0 km/h (0 Bft) NO 45 -2,9 C 0,0 km/h (0 Bft)
25.12.2015 23:05 -0,3 C -0,7 C 82 % 1034,2 hPa 0,0 mm 0,0 km/h (0 Bft) NO 45 -3,0 C 0,0 km/h (0 Bft)
25.12.2015 23:10 -0,3 C -0,7 C 82 % 1034,2 hPa 0,0 mm 0,3 km/h (0 Bft) NW 315 -3,0 C 0,0 km/h (0 Bft)
25.12.2015 23:15 -0,5 C -0,9 C 82 % 1034,0 hPa 0,0 mm 0,3 km/h (0 Bft) N-NW 337 -3,2 C 0,0 km/h (0 Bft)
25.12.2015 23:20 -0,3 C -0,8 C 83 % 1034,0 hPa 0,0 mm 0,0 km/h (0 Bft) N-NW 337 -2,8 C 0,0 km/h (0 Bft)
25.12.2015 23:25 -0,7 C -1,1 C 82 % 1034,0 hPa 0,0 mm 0,0 km/h (0 Bft) NO 45 -3,4 C 0,0 km/h (0 Bft)
25.12.2015 23:30 -0,7 C -1,1 C 83 % 1034,0 hPa 0,0 mm 0,0 km/h (0 Bft) NO 45 -3,2 C 0,0 km/h (0 Bft)
25.12.2015 23:35 -0,9 C -1,2 C 82 % 1034,2 hPa 0,0 mm 0,0 km/h (0 Bft) N-NO 22 -3,6 C 0,0 km/h (0 Bft)
25.12.2015 23:40 -0,5 C -1,0 C 83 % 1034,2 hPa 0,0 mm 0,0 km/h (0 Bft) NO 45 -3,0 C 0,0 km/h (0 Bft)
25.12.2015 23:45 -0,9 C -1,3 C 83 % 1034,2 hPa 0,0 mm 0,0 km/h (0 Bft) O-NO 67 -3,4 C 0,0 km/h (0 Bft)
25.12.2015 23:50 -0,7 C -1,1 C 83 % 1034,2 hPa 0,0 mm 0,0 km/h (0 Bft) O-NO 67 -3,2 C 0,0 km/h (0 Bft)
25.12.2015 23:55 -0,2 C -0,8 C 84 % 1034,0 hPa 0,0 mm 0,0 km/h (0 Bft) N-NO 22 -2,6 C 0,0 km/h (0 Bft)
_ Min-Zeit 23:45 23:45 14:30 00:30 - 23:55 - - 23:35 23:55
Minimum _ -0,9 C -1,3 C 59 % 1030,8 hPa - 0,0 km/h (0 Bft) - - -3,6 C 0,0 km/h (0 Bft)
_ Max-Zeit 14:05 14:10 10:00 21:30 23:55 02:35 - - 14:05 20:10
Maximum _ 10,7 C 15,0 C 85 % 1034,3 hPa 0,0 mm 8,0 km/h
W-SW (2 Bft)
- - 3,0 C 16,3 km/h
O-SO (3 Bft)
Durchschnitt _ 3,4 C 3,5 C 75 % 1033,0 hPa #0,0 mm 0,6 km/h (0 Bft) S - -0,7 C 1,0 km/h (0 Bft)